| time (UTC) | temp F | wind direction | speed MPH | gust MPH | rain 1hr in | rain 24hr in | rain mn in | humidity % | barometer mb |
| 20260906220507 | 74 | 119 | 3.0 | 7.0 | 0.00 | 0.04 | 0.04 | 70 | 1014.4 |
| 20260906220017 | 74 | 74 | 2.0 | 6.0 | 0.00 | 0.04 | 0.04 | 71 | 1014.4 |
| 20260906215505 | 74 | 99 | 1.0 | 4.0 | 0.00 | 0.04 | 0.04 | 72 | 1014.3 |
| 20260906215005 | 73 | 99 | 1.0 | 4.0 | 0.00 | 0.04 | 0.04 | 72 | 1014.3 |
| 20260906214505 | 73 | 121 | 0.0 | 4.0 | 0.00 | 0.04 | 0.04 | 71 | 1014.3 |
| 20260906214007 | 73 | 156 | 0.0 | 4.0 | 0.00 | 0.04 | 0.04 | 71 | 1014.4 |
| 20260906213511 | 73 | 84 | 0.0 | 6.0 | 0.00 | 0.04 | 0.04 | 71 | 1014.3 |
| 20260906213006 | 74 | 75 | 1.0 | 6.0 | 0.00 | 0.04 | 0.04 | 70 | 1014.3 |
| 20260906212504 | 74 | 76 | 1.0 | 6.0 | 0.00 | 0.04 | 0.04 | 70 | 1014.3 |
| 20260906212005 | 74 | 137 | 2.0 | 9.0 | 0.00 | 0.04 | 0.04 | 68 | 1014.3 |
| 20260906211504 | 75 | 78 | 3.0 | 9.0 | 0.00 | 0.04 | 0.04 | 68 | 1014.2 |
| 20260906211006 | 75 | 132 | 1.0 | 9.0 | 0.00 | 0.04 | 0.04 | 69 | 1014.2 |
| 20260906210504 | 76 | 108 | 3.0 | 9.0 | 0.00 | 0.04 | 0.04 | 67 | 1014.1 |
| 20260906210006 | 75 | 130 | 2.0 | 6.0 | 0.00 | 0.04 | 0.04 | 68 | 1014.1 |
| 20260906205504 | 75 | 153 | 2.0 | 9.0 | 0.00 | 0.04 | 0.04 | 69 | 1014.0 |
| 20260906205003 | 75 | 95 | 4.0 | 9.0 | 0.00 | 0.04 | 0.04 | 68 | 1013.9 |
| 20260906204503 | 75 | 113 | 2.0 | 8.0 | 0.00 | 0.04 | 0.04 | 69 | 1013.9 |
| 20260906204002 | 75 | 111 | 2.0 | 10.0 | 0.00 | 0.04 | 0.04 | 71 | 1014.0 |
| 20260906203503 | 75 | 30 | 3.0 | 11.0 | 0.00 | 0.04 | 0.04 | 70 | 1014.0 |
| 20260906203003 | 75 | 114 | 4.0 | 11.0 | 0.00 | 0.04 | 0.04 | 70 | 1013.9 |
| 20260906202503 | 75 | 68 | 2.0 | 8.0 | 0.00 | 0.04 | 0.04 | 74 | 1013.9 |
| 20260906202004 | 74 | 126 | 3.0 | 10.0 | 0.00 | 0.04 | 0.04 | 72 | 1013.9 |
| 20260906201510 | 75 | 109 | 5.0 | 9.0 | 0.00 | 0.04 | 0.04 | 73 | 1014.0 |
| 20260906201001 | 75 | 126 | 4.0 | 9.0 | 0.00 | 0.04 | 0.04 | 75 | 1014.0 |
| 20260906200503 | 75 | 115 | 5.0 | 8.0 | 0.00 | 0.04 | 0.04 | 74 | 1014.0 |
| 20260906200002 | 74 | 141 | 4.0 | 8.0 | 0.00 | 0.04 | 0.04 | 75 | 1014.0 |
| 20260906195501 | 74 | 101 | 2.0 | 11.0 | 0.00 | 0.04 | 0.04 | 77 | 1013.9 |
| 20260906195100 | 74 | 65 | 4.0 | 11.0 | 0.03 | 0.04 | 0.04 | 76 | 1013.9 |
| 20260906194600 | 73 | 87 | 4.0 | 8.0 | 0.04 | 0.04 | 0.04 | 79 | 1013.9 |
| 20260906194059 | 73 | 75 | 3.0 | 8.0 | 0.04 | 0.04 | 0.04 | 81 | 1013.9 |
| 20260906193600 | 72 | 107 | 3.0 | 8.0 | 0.04 | 0.04 | 0.04 | 84 | 1014.1 |
| 20260906193100 | 71 | 112 | 1.0 | 6.0 | 0.04 | 0.04 | 0.04 | 86 | 1014.1 |
| 20260906192559 | 71 | 107 | 2.0 | 6.0 | 0.04 | 0.04 | 0.04 | 85 | 1014.1 |
| 20260906192105 | 70 | 76 | 1.0 | 5.0 | 0.04 | 0.04 | 0.04 | 86 | 1014.2 |
| 20260906191608 | 70 | 113 | 2.0 | 6.0 | 0.04 | 0.04 | 0.04 | 86 | 1014.3 |
| 20260906191001 | 70 | 113 | 1.0 | 4.0 | 0.04 | 0.04 | 0.04 | 86 | 1014.3 |
| 20260906190559 | 69 | 103 | 0.0 | 9.0 | 0.04 | 0.04 | 0.04 | 84 | 1014.4 |
| 20260906190058 | 70 | 119 | 1.0 | 9.0 | 0.04 | 0.04 | 0.04 | 81 | 1014.3 |
| 20260906185601 | 72 | 64 | 4.0 | 15.0 | 0.04 | 0.04 | 0.04 | 78 | 1014.3 |
| 20260906185057 | 75 | 106 | 9.0 | 15.0 | 0.00 | 0.00 | 0.00 | 72 | 1014.3 |
| 20260906184557 | 75 | 96 | 2.0 | 7.0 | 0.00 | 0.00 | 0.00 | 70 | 1014.1 |
| 20260906184100 | 74 | 105 | 2.0 | 8.0 | 0.00 | 0.00 | 0.00 | 73 | 1014.1 |
| 20260906183556 | 74 | 91 | 2.0 | 11.0 | 0.00 | 0.00 | 0.00 | 73 | 1014.1 |
| 20260906183057 | 74 | 99 | 5.0 | 11.0 | 0.00 | 0.00 | 0.00 | 73 | 1014.1 |
| 20260906182558 | 74 | 32 | 4.0 | 9.0 | 0.00 | 0.00 | 0.00 | 72 | 1014.1 |
| 20260906182056 | 75 | 55 | 2.0 | 11.0 | 0.00 | 0.00 | 0.00 | 71 | 1014.2 |
| 20260906181557 | 76 | 34 | 4.0 | 14.0 | 0.00 | 0.00 | 0.00 | 69 | 1014.2 |
| 20260906181057 | 78 | 79 | 4.0 | 8.0 | 0.00 | 0.00 | 0.00 | 67 | 1014.1 |
| 20260906180557 | 77 | 78 | 1.0 | 10.0 | 0.00 | 0.00 | 0.00 | 70 | 1013.9 |
| 20260906180115 | 76 | 56 | 3.0 | 10.0 | 0.00 | 0.00 | 0.00 | 71 | 1014.1 |
| 20260906175554 | 75 | 100 | 5.0 | 12.0 | 0.00 | 0.00 | 0.00 | 71 | 1014.0 |
| 20260906175055 | 75 | 144 | 5.0 | 12.0 | 0.00 | 0.00 | 0.00 | 71 | 1014.1 |
| 20260906174602 | 74 | 151 | 3.0 | 11.0 | 0.00 | 0.00 | 0.00 | 72 | 1014.0 |
| 20260906174053 | 74 | 55 | 4.0 | 13.0 | 0.00 | 0.00 | 0.00 | 70 | 1014.2 |
| 20260906173555 | 75 | 118 | 4.0 | 14.0 | 0.00 | 0.00 | 0.00 | 69 | 1014.1 |
| 20260906173059 | 76 | 67 | 5.0 | 14.0 | 0.00 | 0.00 | 0.00 | 68 | 1014.1 |
| 20260906172554 | 76 | 120 | 4.0 | 10.0 | 0.00 | 0.00 | 0.00 | 68 | 1014.2 |
| 20260906172054 | 78 | 101 | 3.0 | 10.0 | 0.00 | 0.00 | 0.00 | 65 | 1014.2 |
| 20260906171554 | 80 | 71 | 1.0 | 6.0 | 0.00 | 0.00 | 0.00 | 60 | 1014.2 |
| 20260906171052 | 80 | 17 | 1.0 | 4.0 | 0.00 | 0.00 | 0.00 | 63 | 1014.1 |
| 20260906170552 | 80 | 38 | 1.0 | 5.0 | 0.00 | 0.00 | 0.00 | 60 | 1014.0 |
| 20260906170053 | 79 | 97 | 2.0 | 5.0 | 0.00 | 0.00 | 0.00 | 63 | 1014.0 |
| 20260906165552 | 79 | 360 | 1.0 | 5.0 | 0.00 | 0.00 | 0.00 | 64 | 1014.1 |
| 20260906165051 | 79 | 21 | 1.0 | 6.0 | 0.00 | 0.00 | 0.00 | 62 | 1014.0 |
| 20260906164552 | 80 | 5 | 1.0 | 5.0 | 0.00 | 0.00 | 0.00 | 61 | 1013.9 |
| 20260906164051 | 80 | 24 | 0.0 | 3.0 | 0.00 | 0.00 | 0.00 | 63 | 1014.0 |
| 20260906163550 | 79 | 5 | 0.0 | 5.0 | 0.00 | 0.00 | 0.00 | 63 | 1014.0 |
| 20260906163056 | 79 | 63 | 1.0 | 9.0 | 0.00 | 0.00 | 0.00 | 64 | 1014.1 |
| 20260906162549 | 79 | 105 | 2.0 | 9.0 | 0.00 | 0.00 | 0.00 | 63 | 1014.1 |
| 20260906162049 | 80 | 81 | 2.0 | 8.0 | 0.00 | 0.00 | 0.00 | 63 | 1014.1 |
| 20260906161549 | 79 | 89 | 1.0 | 5.0 | 0.00 | 0.00 | 0.00 | 64 | 1014.1 |
| 20260906161049 | 79 | 338 | 1.0 | 5.0 | 0.00 | 0.00 | 0.00 | 64 | 1014.1 |
| 20260906160549 | 78 | 50 | 1.0 | 5.0 | 0.00 | 0.00 | 0.00 | 64 | 1014.2 |
| 20260906160049 | 78 | 83 | 0.0 | 9.0 | 0.00 | 0.00 | 0.00 | 67 | 1014.2 |
| 20260906155548 | 78 | 300 | 2.0 | 7.0 | 0.00 | 0.00 | 0.00 | 62 | 1014.1 |
| 20260906155047 | 78 | 44 | 1.0 | 5.0 | 0.00 | 0.00 | 0.00 | 64 | 1014.2 |
| 20260906154551 | 79 | 67 | 1.0 | 9.0 | 0.00 | 0.00 | 0.00 | 62 | 1014.2 |
| 20260906154049 | 79 | 34 | 2.0 | 10.0 | 0.00 | 0.00 | 0.00 | 61 | 1014.2 |
| 20260906153547 | 79 | 70 | 2.0 | 10.0 | 0.00 | 0.00 | 0.00 | 60 | 1014.3 |
| 20260906153110 | 80 | 63 | 3.0 | 6.0 | 0.00 | 0.00 | 0.00 | 58 | 1014.2 |
| 20260906152545 | 80 | 125 | 1.0 | 6.0 | 0.00 | 0.00 | 0.00 | 60 | 1014.2 |
| 20260906152044 | 80 | 55 | 1.0 | 5.0 | 0.00 | 0.00 | 0.00 | 63 | 1014.2 |
| 20260906151555 | 79 | 25 | 1.0 | 7.0 | 0.00 | 0.00 | 0.00 | 62 | 1014.1 |
| 20260906151043 | 79 | 336 | 2.0 | 7.0 | 0.00 | 0.00 | 0.00 | 61 | 1014.1 |
| 20260906150543 | 79 | 55 | 1.0 | 8.0 | 0.00 | 0.00 | 0.00 | 63 | 1014.1 |
| 20260906150044 | 79 | 99 | 2.0 | 8.0 | 0.00 | 0.00 | 0.00 | 63 | 1014.0 |
| 20260906145540 | 78 | 50 | 1.0 | 6.0 | 0.00 | 0.00 | 0.00 | 65 | 1014.0 |
| 20260906145039 | 78 | 64 | 1.0 | 6.0 | 0.00 | 0.00 | 0.00 | 64 | 1014.0 |
| 20260906144543 | 78 | 19 | 2.0 | 5.0 | 0.00 | 0.00 | 0.00 | 64 | 1014.0 |
| 20260906144037 | 78 | 272 | 0.0 | 4.0 | 0.00 | 0.00 | 0.00 | 67 | 1014.0 |
| 20260906143537 | 77 | 44 | 1.0 | 6.0 | 0.00 | 0.00 | 0.00 | 68 | 1013.9 |
| 20260906143043 | 77 | 5 | 2.0 | 9.0 | 0.00 | 0.00 | 0.00 | 66 | 1013.9 |
| 20260906142535 | 77 | 351 | 1.0 | 9.0 | 0.00 | 0.00 | 0.00 | 69 | 1013.8 |
| 20260906142036 | 77 | 44 | 1.0 | 7.0 | 0.00 | 0.00 | 0.00 | 70 | 1013.7 |
| 20260906141533 | 76 | 103 | 0.0 | 7.0 | 0.00 | 0.00 | 0.00 | 69 | 1013.7 |
| 20260906141033 | 76 | 53 | 1.0 | 4.0 | 0.00 | 0.00 | 0.00 | 71 | 1013.8 |
| 20260906140534 | 75 | 50 | 1.0 | 7.0 | 0.00 | 0.00 | 0.00 | 73 | 1013.7 |
| 20260906140034 | 75 | 360 | 2.0 | 8.0 | 0.00 | 0.00 | 0.00 | 72 | 1013.7 |
| 20260906135529 | 75 | 226 | 2.0 | 8.0 | 0.00 | 0.00 | 0.00 | 72 | 1013.7 |
| 20260906135028 | 74 | 86 | 1.0 | 4.0 | 0.00 | 0.00 | 0.00 | 73 | 1013.8 |
| 20260906134527 | 74 | 110 | 1.0 | 6.0 | 0.00 | 0.00 | 0.00 | 74 | 1013.8 |
| 20260906134026 | 74 | 13 | 2.0 | 8.0 | 0.00 | 0.00 | 0.00 | 75 | 1013.7 |
| 20260906133528 | 74 | 27 | 1.0 | 8.0 | 0.00 | 0.00 | 0.00 | 76 | 1013.7 |
| 20260906133027 | 73 | 338 | 2.0 | 8.0 | 0.00 | 0.00 | 0.00 | 75 | 1013.7 |
| 20260906132524 | 73 | 15 | 1.0 | 5.0 | 0.00 | 0.00 | 0.00 | 76 | 1013.6 |
| 20260906132022 | 73 | 105 | 0.0 | 5.0 | 0.00 | 0.00 | 0.00 | 77 | 1013.5 |
| 20260906131524 | 73 | 86 | 1.0 | 5.0 | 0.00 | 0.00 | 0.00 | 78 | 1013.5 |
| 20260906131019 | 72 | 74 | 2.0 | 5.0 | 0.00 | 0.00 | 0.00 | 79 | 1013.5 |
| 20260906130519 | 72 | 112 | 1.0 | 5.0 | 0.00 | 0.00 | 0.00 | 80 | 1013.5 |
| 20260906130018 | 71 | 20 | 1.0 | 5.0 | 0.00 | 0.00 | 0.00 | 80 | 1013.5 |
| 20260906125518 | 71 | 49 | 0.0 | 5.0 | 0.00 | 0.00 | 0.00 | 81 | 1013.5 |
| 20260906125020 | 70 | 338 | 2.0 | 8.0 | 0.00 | 0.00 | 0.00 | 81 | 1013.5 |
| 20260906124514 | 70 | 30 | 0.0 | 8.0 | 0.00 | 0.00 | 0.00 | 82 | 1013.5 |
| 20260906124013 | 70 | 26 | 1.0 | 3.0 | 0.00 | 0.00 | 0.00 | 83 | 1013.4 |
| 20260906123511 | 69 | 116 | 1.0 | 5.0 | 0.00 | 0.00 | 0.00 | 83 | 1013.4 |
| 20260906123018 | 69 | 69 | 1.0 | 5.0 | 0.00 | 0.00 | 0.00 | 83 | 1013.3 |
| 20260906122510 | 68 | 22 | 0.0 | 3.0 | 0.00 | 0.00 | 0.00 | 84 | 1013.4 |
| 20260906122008 | 67 | 49 | 0.0 | 3.0 | 0.00 | 0.00 | 0.00 | 85 | 1013.4 |
| 20260906121507 | 67 | 333 | 0.0 | 4.0 | 0.00 | 0.00 | 0.00 | 86 | 1013.3 |
| 20260906121007 | 66 | 34 | 1.0 | 4.0 | 0.00 | 0.00 | 0.00 | 86 | 1013.3 |
| 20260906120504 | 66 | 23 | 0.0 | 4.0 | 0.00 | 0.00 | 0.00 | 87 | 1013.3 |
| 20260906120002 | 65 | 44 | 1.0 | 6.0 | 0.00 | 0.00 | 0.00 | 88 | 1013.3 |
| 20260906115601 | 65 | 19 | 0.0 | 6.0 | 0.00 | 0.00 | 0.00 | 89 | 1013.3 |
| 20260906115159 | 65 | 101 | 0.0 | 6.0 | 0.00 | 0.00 | 0.00 | 89 | 1013.2 |
| 20260906114558 | 64 | 51 | 0.0 | 4.0 | 0.00 | 0.00 | 0.00 | 89 | 1013.1 |
| 20260906114058 | 64 | 311 | 0.0 | 2.0 | 0.00 | 0.00 | 0.00 | 90 | 1013.1 |
| 20260906113557 | 63 | 30 | 1.0 | 3.0 | 0.00 | 0.00 | 0.00 | 91 | 1013.0 |
| 20260906113100 | 63 | 63 | 0.0 | 4.0 | 0.00 | 0.00 | 0.00 | 91 | 1013.0 |
| 20260906112554 | 62 | 17 | 0.0 | 2.0 | 0.00 | 0.00 | 0.00 | 92 | 1012.9 |
| 20260906112054 | 62 | 35 | 0.0 | 0.0 | 0.00 | 0.00 | 0.00 | 92 | 1012.8 |
| 20260906111556 | 61 | 37 | 0.0 | 0.0 | 0.00 | 0.00 | 0.00 | 92 | 1012.8 |
| 20260906111053 | 61 | 50 | 0.0 | 0.0 | 0.00 | 0.00 | 0.00 | 92 | 1012.7 |
| 20260906110553 | 61 | 44 | 0.0 | 0.0 | 0.00 | 0.00 | 0.00 | 92 | 1012.6 |
| 20260906110055 | 61 | 49 | 0.0 | 0.0 | 0.00 | 0.00 | 0.00 | 92 | 1012.5 |
| 20260906105551 | 61 | 47 | 0.0 | 0.0 | 0.00 | 0.00 | 0.00 | 92 | 1012.5 |
| 20260906105050 | 61 | 30 | 0.0 | 0.0 | 0.00 | 0.00 | 0.00 | 92 | 1012.3 |
| 20260906104552 | 61 | 60 | 0.0 | 0.0 | 0.00 | 0.00 | 0.00 | 92 | 1012.2 |
| 20260906104050 | 61 | 59 | 0.0 | 0.0 | 0.00 | 0.00 | 0.00 | 92 | 1012.1 |
| 20260906103550 | 61 | 47 | 0.0 | 0.0 | 0.00 | 0.00 | 0.00 | 92 | 1012.1 |
| 20260906103101 | 61 | 49 | 0.0 | 0.0 | 0.00 | 0.00 | 0.00 | 92 | 1012.0 |
| 20260906102548 | 61 | 42 | 0.0 | 0.0 | 0.00 | 0.00 | 0.00 | 92 | 1012.0 |
| 20260906102047 | 61 | 49 | 0.0 | 0.0 | 0.00 | 0.00 | 0.00 | 92 | 1011.9 |
| 20260906101546 | 61 | 34 | 0.0 | 0.0 | 0.00 | 0.00 | 0.00 | 92 | 1012.0 |
| 20260906101045 | 61 | 49 | 0.0 | 0.0 | 0.00 | 0.00 | 0.00 | 92 | 1011.9 |
| 20260906100544 | 61 | 5 | 0.0 | 0.0 | 0.00 | 0.00 | 0.00 | 92 | 1011.8 |
| 20260906100043 | 61 | 48 | 0.0 | 0.0 | 0.00 | 0.00 | 0.00 | 92 | 1011.7 |
| 20260906095543 | 61 | 22 | 0.0 | 0.0 | 0.00 | 0.00 | 0.00 | 92 | 1011.7 |
| 20260906095042 | 61 | 37 | 0.0 | 0.0 | 0.00 | 0.00 | 0.00 | 92 | 1011.7 |
| 20260906094541 | 61 | 355 | 0.0 | 0.0 | 0.00 | 0.00 | 0.00 | 92 | 1011.5 |
| 20260906094041 | 61 | 355 | 0.0 | 0.0 | 0.00 | 0.00 | 0.00 | 92 | 1011.4 |
| 20260906093541 | 61 | 44 | 0.0 | 0.0 | 0.00 | 0.00 | 0.00 | 92 | 1011.4 |
| 20260906093041 | 61 | 32 | 0.0 | 0.0 | 0.00 | 0.00 | 0.00 | 92 | 1011.3 |
| 20260906092541 | 61 | 10 | 0.0 | 0.0 | 0.00 | 0.00 | 0.00 | 92 | 1011.3 |
| 20260906092040 | 61 | 38 | 0.0 | 0.0 | 0.00 | 0.00 | 0.00 | 92 | 1011.3 |
| 20260906091540 | 61 | 38 | 0.0 | 0.0 | 0.00 | 0.00 | 0.00 | 92 | 1011.2 |
| 20260906091039 | 61 | 47 | 0.0 | 0.0 | 0.00 | 0.00 | 0.00 | 92 | 1011.1 |
| 20260906090538 | 61 | 48 | 0.0 | 1.0 | 0.00 | 0.00 | 0.00 | 92 | 1011.1 |
| 20260906090056 | 61 | 29 | 0.0 | 2.0 | 0.00 | 0.00 | 0.00 | 92 | 1011.1 |
| 20260906085538 | 61 | 38 | 0.0 | 2.0 | 0.00 | 0.00 | 0.00 | 92 | 1011.0 |
| 20260906085037 | 61 | 39 | 0.0 | 2.0 | 0.00 | 0.00 | 0.00 | 92 | 1011.0 |
| 20260906084538 | 61 | 5 | 0.0 | 2.0 | 0.00 | 0.00 | 0.00 | 92 | 1010.9 |
| 20260906084037 | 61 | 36 | 0.0 | 4.0 | 0.00 | 0.00 | 0.00 | 92 | 1010.8 |
| 20260906083537 | 61 | 36 | 0.0 | 4.0 | 0.00 | 0.00 | 0.00 | 92 | 1010.9 |
| 20260906083039 | 61 | 49 | 0.0 | 2.0 | 0.00 | 0.00 | 0.00 | 92 | 1010.9 |
| 20260906082535 | 61 | 19 | 0.0 | 1.0 | 0.00 | 0.00 | 0.00 | 92 | 1010.8 |
| 20260906082035 | 62 | 48 | 0.0 | 2.0 | 0.00 | 0.00 | 0.00 | 92 | 1010.9 |
| 20260906081534 | 62 | 42 | 0.0 | 2.0 | 0.00 | 0.00 | 0.00 | 92 | 1010.9 |
| 20260906081034 | 62 | 39 | 0.0 | 1.0 | 0.00 | 0.00 | 0.00 | 92 | 1010.9 |
| 20260906080534 | 62 | 50 | 0.0 | 4.0 | 0.00 | 0.00 | 0.00 | 92 | 1010.8 |
| 20260906080034 | 62 | 42 | 0.0 | 3.0 | 0.00 | 0.00 | 0.00 | 92 | 1010.9 |
| 20260906075533 | 62 | 45 | 0.0 | 3.0 | 0.00 | 0.00 | 0.00 | 92 | 1010.9 |
| 20260906075033 | 62 | 10 | 0.0 | 2.0 | 0.00 | 0.00 | 0.00 | 92 | 1010.9 |
| 20260906074532 | 62 | 52 | 0.0 | 3.0 | 0.00 | 0.00 | 0.00 | 92 | 1010.8 |
| 20260906074031 | 62 | 42 | 0.0 | 3.0 | 0.00 | 0.00 | 0.00 | 92 | 1010.7 |
| 20260906073532 | 62 | 24 | 0.0 | 2.0 | 0.00 | 0.00 | 0.00 | 92 | 1010.6 |
| 20260906073031 | 62 | 42 | 0.0 | 2.0 | 0.00 | 0.00 | 0.00 | 93 | 1010.6 |
| 20260906072530 | 62 | 59 | 0.0 | 2.0 | 0.00 | 0.00 | 0.00 | 93 | 1010.7 |
| 20260906072030 | 62 | 30 | 0.0 | 1.0 | 0.00 | 0.00 | 0.00 | 93 | 1010.8 |
| 20260906071529 | 62 | 30 | 0.0 | 0.0 | 0.00 | 0.00 | 0.00 | 93 | 1010.8 |
| 20260906071029 | 62 | 44 | 0.0 | 0.0 | 0.00 | 0.00 | 0.00 | 93 | 1010.8 |
| 20260906070530 | 62 | 39 | 0.0 | 0.0 | 0.00 | 0.00 | 0.00 | 93 | 1010.7 |
| 20260906070035 | 63 | 61 | 0.0 | 0.0 | 0.00 | 0.00 | 0.00 | 93 | 1010.7 |
| 20260906065532 | 63 | 30 | 0.0 | 0.0 | 0.00 | 0.08 | 0.00 | 93 | 1010.8 |
| 20260906065028 | 63 | 43 | 0.0 | 0.0 | 0.00 | 0.08 | 0.00 | 93 | 1010.7 |
| 20260906064531 | 63 | 55 | 0.0 | 0.0 | 0.00 | 0.08 | 0.00 | 93 | 1010.8 |
| 20260906064029 | 62 | 112 | 0.0 | 0.0 | 0.00 | 0.08 | 0.00 | 93 | 1010.7 |
| 20260906063526 | 62 | 112 | 0.0 | 0.0 | 0.00 | 0.08 | 0.00 | 93 | 1010.7 |
| 20260906063041 | 62 | 112 | 0.0 | 0.0 | 0.00 | 0.08 | 0.00 | 93 | 1010.8 |
| 20260906062528 | 63 | 112 | 0.0 | 0.0 | 0.00 | 0.08 | 0.00 | 93 | 1010.9 |
| 20260906062029 | 63 | 112 | 0.0 | 0.0 | 0.00 | 0.08 | 0.00 | 93 | 1010.7 |
| 20260906061525 | 63 | 112 | 0.0 | 0.0 | 0.00 | 0.08 | 0.00 | 93 | 1010.8 |
| 20260906061024 | 63 | 112 | 0.0 | 0.0 | 0.00 | 0.08 | 0.00 | 93 | 1010.8 |
| 20260906060526 | 63 | 112 | 0.0 | 0.0 | 0.00 | 0.08 | 0.00 | 93 | 1010.8 |
| 20260906060024 | 63 | 112 | 0.0 | 0.0 | 0.00 | 0.08 | 0.00 | 93 | 1010.9 |
| 20260906055526 | 63 | 112 | 0.0 | 0.0 | 0.00 | 0.28 | 0.00 | 93 | 1010.9 |
| 20260906055024 | 63 | 112 | 0.0 | 0.0 | 0.00 | 0.28 | 0.00 | 93 | 1010.9 |
| 20260906054522 | 63 | 112 | 0.0 | 0.0 | 0.00 | 0.28 | 0.00 | 93 | 1011.0 |
| 20260906054021 | 63 | 112 | 0.0 | 0.0 | 0.00 | 0.28 | 0.00 | 92 | 1011.0 |
| 20260906053520 | 63 | 112 | 0.0 | 1.0 | 0.00 | 0.28 | 0.00 | 92 | 1011.0 |
| 20260906053023 | 63 | 112 | 0.0 | 1.0 | 0.00 | 0.28 | 0.00 | 92 | 1011.1 |
| 20260906052524 | 63 | 112 | 0.0 | 1.0 | 0.00 | 0.28 | 0.00 | 92 | 1011.1 |
| 20260906052020 | 63 | 112 | 0.0 | 1.0 | 0.00 | 0.28 | 0.00 | 92 | 1011.1 |
| 20260906051537 | 63 | 112 | 0.0 | 1.0 | 0.00 | 0.28 | 0.00 | 92 | 1011.2 |
| 20260906051019 | 63 | 112 | 0.0 | 1.0 | 0.00 | 0.28 | 0.00 | 92 | 1011.1 |
| 20260906050518 | 64 | 112 | 0.0 | 1.0 | 0.00 | 0.28 | 0.00 | 92 | 1011.1 |
| 20260906050018 | 64 | 112 | 0.0 | 1.0 | 0.00 | 0.28 | 0.00 | 92 | 1011.2 |
| 20260906045517 | 64 | 112 | 0.0 | 1.0 | 0.00 | 0.42 | 0.00 | 92 | 1011.3 |
| 20260906045016 | 64 | 112 | 0.0 | 1.0 | 0.00 | 0.42 | 0.00 | 92 | 1011.3 |
| 20260906044516 | 64 | 112 | 0.0 | 1.0 | 0.00 | 0.42 | 0.00 | 92 | 1011.3 |
| 20260906044018 | 64 | 112 | 0.0 | 0.0 | 0.00 | 0.42 | 0.00 | 92 | 1011.3 |
| 20260906043515 | 64 | 112 | 0.0 | 1.0 | 0.00 | 0.42 | 0.00 | 92 | 1011.3 |
| 20260906043016 | 64 | 112 | 0.0 | 0.0 | 0.00 | 0.42 | 0.00 | 92 | 1011.3 |
| 20260906042514 | 64 | 112 | 0.0 | 0.0 | 0.00 | 0.42 | 0.00 | 92 | 1011.3 |
| 20260906042013 | 64 | 112 | 0.0 | 1.0 | 0.00 | 0.42 | 0.00 | 92 | 1011.4 |
| 20260906041513 | 64 | 112 | 0.0 | 1.0 | 0.00 | 0.42 | 0.00 | 92 | 1011.3 |
| 20260906041020 | 64 | 112 | 0.0 | 0.0 | 0.00 | 0.42 | 0.00 | 92 | 1011.3 |
| 20260906040512 | 64 | 112 | 0.0 | 0.0 | 0.00 | 0.42 | 0.00 | 92 | 1011.4 |
| 20260906040025 | 64 | 112 | 0.0 | 0.0 | 0.00 | 0.42 | 0.00 | 92 | 1011.5 |
| 20260906035510 | 65 | 112 | 0.0 | 0.0 | 0.00 | 0.42 | 0.42 | 91 | 1011.5 |
| 20260906035012 | 65 | 112 | 0.0 | 0.0 | 0.00 | 0.42 | 0.42 | 92 | 1011.5 |
| 20260906034511 | 65 | 112 | 0.0 | 0.0 | 0.00 | 0.42 | 0.42 | 92 | 1011.4 |
| 20260906034013 | 65 | 112 | 0.0 | 0.0 | 0.00 | 0.42 | 0.42 | 92 | 1011.5 |
| 20260906033508 | 65 | 112 | 0.0 | 0.0 | 0.00 | 0.42 | 0.42 | 92 | 1011.5 |
| 20260906033008 | 65 | 112 | 0.0 | 0.0 | 0.00 | 0.42 | 0.42 | 91 | 1011.4 |
| 20260906032507 | 65 | 112 | 0.0 | 0.0 | 0.00 | 0.42 | 0.42 | 91 | 1011.3 |
| 20260906032008 | 65 | 112 | 0.0 | 1.0 | 0.00 | 0.42 | 0.42 | 91 | 1011.4 |
| 20260906031509 | 65 | 112 | 0.0 | 1.0 | 0.00 | 0.42 | 0.42 | 91 | 1011.4 |
| 20260906031007 | 65 | 112 | 0.0 | 0.0 | 0.00 | 0.42 | 0.42 | 91 | 1011.4 |
| 20260906030509 | 65 | 112 | 0.0 | 0.0 | 0.00 | 0.42 | 0.42 | 91 | 1011.5 |
| 20260906030006 | 65 | 112 | 0.0 | 0.0 | 0.00 | 0.42 | 0.42 | 91 | 1011.4 |
| 20260906025509 | 65 | 112 | 0.0 | 1.0 | 0.00 | 0.42 | 0.42 | 91 | 1011.4 |
| 20260906025005 | 65 | 112 | 0.0 | 1.0 | 0.00 | 0.42 | 0.42 | 91 | 1011.4 |
| 20260906024505 | 66 | 112 | 0.0 | 0.0 | 0.00 | 0.42 | 0.42 | 90 | 1011.3 |
| 20260906024004 | 66 | 112 | 0.0 | 0.0 | 0.00 | 0.42 | 0.42 | 90 | 1011.4 |
| 20260906023506 | 66 | 112 | 0.0 | 0.0 | 0.00 | 0.42 | 0.42 | 90 | 1011.5 |
| 20260906023003 | 66 | 112 | 0.0 | 0.0 | 0.00 | 0.42 | 0.42 | 90 | 1011.4 |
| 20260906022502 | 66 | 112 | 0.0 | 0.0 | 0.00 | 0.42 | 0.42 | 90 | 1011.4 |
| 20260906022002 | 66 | 112 | 0.0 | 0.0 | 0.00 | 0.42 | 0.42 | 90 | 1011.2 |
| 20260906021501 | 66 | 112 | 0.0 | 0.0 | 0.00 | 0.42 | 0.42 | 90 | 1011.2 |
| 20260906021102 | 66 | 112 | 0.0 | 0.0 | 0.00 | 0.42 | 0.42 | 89 | 1011.2 |
| 20260906021000 | 66 | 112 | 0.0 | 0.0 | 0.00 | 0.42 | 0.42 | 89 | 1011.2 |
| 20260906020601 | 66 | 112 | 0.0 | 0.0 | 0.00 | 0.42 | 0.42 | 89 | 1011.2 |
| 20260906020107 | 67 | 112 | 0.0 | 1.0 | 0.00 | 0.42 | 0.42 | 89 | 1011.1 |
| 20260906015558 | 67 | 112 | 0.0 | 1.0 | 0.00 | 0.42 | 0.42 | 89 | 1011.1 |
| 20260906015058 | 67 | 112 | 0.0 | 0.0 | 0.00 | 0.42 | 0.42 | 89 | 1011.0 |
| 20260906014557 | 67 | 112 | 0.0 | 1.0 | 0.00 | 0.42 | 0.42 | 89 | 1011.0 |
| 20260906014056 | 67 | 112 | 0.0 | 1.0 | 0.00 | 0.42 | 0.42 | 88 | 1010.9 |
| 20260906013556 | 67 | 112 | 0.0 | 0.0 | 0.00 | 0.42 | 0.42 | 88 | 1011.0 |
| 20260906013105 | 67 | 112 | 0.0 | 1.0 | 0.00 | 0.42 | 0.42 | 88 | 1011.1 |
| 20260906012555 | 68 | 112 | 0.0 | 1.0 | 0.00 | 0.42 | 0.42 | 88 | 1011.0 |
| 20260906012055 | 68 | 112 | 0.0 | 1.0 | 0.00 | 0.42 | 0.42 | 87 | 1010.9 |
| 20260906011555 | 68 | 112 | 0.0 | 1.0 | 0.00 | 0.42 | 0.42 | 87 | 1011.0 |
| 20260906011054 | 68 | 112 | 0.0 | 0.0 | 0.00 | 0.42 | 0.42 | 86 | 1010.9 |
| 20260906010553 | 68 | 112 | 0.0 | 0.0 | 0.00 | 0.42 | 0.42 | 86 | 1010.8 |
| 20260906010055 | 69 | 112 | 0.0 | 0.0 | 0.00 | 0.42 | 0.42 | 85 | 1010.7 |
| 20260906005553 | 69 | 112 | 0.0 | 0.0 | 0.00 | 0.42 | 0.42 | 84 | 1010.7 |
| 20260906005055 | 69 | 112 | 0.0 | 0.0 | 0.00 | 0.42 | 0.42 | 84 | 1010.8 |
| 20260906004555 | 70 | 112 | 0.0 | 0.0 | 0.00 | 0.42 | 0.42 | 83 | 1010.7 |
| 20260906004053 | 70 | 112 | 0.0 | 0.0 | 0.00 | 0.42 | 0.42 | 82 | 1010.7 |
| 20260906003554 | 70 | 112 | 0.0 | 0.0 | 0.00 | 0.42 | 0.42 | 81 | 1010.6 |
| 20260906003052 | 71 | 112 | 0.0 | 0.0 | 0.00 | 0.42 | 0.42 | 80 | 1010.5 |
| 20260906002552 | 71 | 112 | 0.0 | 0.0 | 0.00 | 0.42 | 0.42 | 80 | 1010.5 |
| 20260906002054 | 71 | 112 | 0.0 | 0.0 | 0.00 | 0.42 | 0.42 | 79 | 1010.6 |
| 20260906001551 | 71 | 112 | 0.0 | 0.0 | 0.00 | 0.42 | 0.42 | 79 | 1010.5 |
| 20260906001059 | 71 | 86 | 0.0 | 0.0 | 0.00 | 0.42 | 0.42 | 78 | 1010.5 |
| 20260906000552 | 71 | 88 | 0.0 | 0.0 | 0.00 | 0.42 | 0.42 | 78 | 1010.3 |
| 20260905235551 | 71 | 76 | 0.0 | 0.0 | 0.00 | 0.42 | 0.42 | 78 | 1010.1 |
| 20260905235051 | 71 | 90 | 0.0 | 0.0 | 0.00 | 0.42 | 0.42 | 77 | 1010.1 |
| 20260905234610 | 72 | 61 | 0.0 | 0.0 | 0.00 | 0.42 | 0.42 | 76 | 1010.0 |
| 20260905234050 | 73 | 90 | 0.0 | 0.0 | 0.00 | 0.42 | 0.42 | 76 | 1010.0 |
| 20260905233550 | 73 | 10 | 0.0 | 0.0 | 0.00 | 0.42 | 0.42 | 75 | 1009.9 |
| 20260905233050 | 74 | 10 | 0.0 | 0.0 | 0.00 | 0.42 | 0.42 | 74 | 1009.8 |
| 20260905232550 | 74 | 10 | 0.0 | 0.0 | 0.00 | 0.42 | 0.42 | 71 | 1009.8 |
| 20260905232050 | 75 | 10 | 0.0 | 0.0 | 0.00 | 0.42 | 0.42 | 70 | 1009.8 |
| 20260905231550 | 75 | 11 | 0.0 | 0.0 | 0.00 | 0.42 | 0.42 | 69 | 1009.8 |
| 20260905231049 | 76 | 11 | 0.0 | 0.0 | 0.00 | 0.42 | 0.42 | 70 | 1009.7 |
| 20260905230551 | 76 | 11 | 0.0 | 0.0 | 0.00 | 0.42 | 0.42 | 67 | 1009.6 |
| 20260905230051 | 77 | 10 | 0.0 | 0.0 | 0.00 | 0.42 | 0.42 | 66 | 1009.6 |
| 20260905225549 | 78 | 10 | 0.0 | 0.0 | 0.00 | 0.42 | 0.42 | 63 | 1009.7 |
| 20260905225049 | 79 | 10 | 0.0 | 1.0 | 0.00 | 0.42 | 0.42 | 62 | 1009.7 |
| 20260905224551 | 79 | 10 | 0.0 | 2.0 | 0.00 | 0.42 | 0.42 | 61 | 1009.6 |
| 20260905224048 | 80 | 31 | 0.0 | 1.0 | 0.00 | 0.42 | 0.42 | 60 | 1009.6 |
| 20260905223549 | 80 | 360 | 0.0 | 1.0 | 0.00 | 0.42 | 0.42 | 60 | 1009.6 |
| 20260905223051 | 81 | 360 | 0.0 | 1.0 | 0.00 | 0.42 | 0.42 | 57 | 1009.5 |
| 20260905222551 | 81 | 360 | 0.0 | 2.0 | 0.00 | 0.42 | 0.42 | 57 | 1009.6 |
| 20260905222048 | 81 | 346 | 0.0 | 3.0 | 0.00 | 0.42 | 0.42 | 57 | 1009.6 |
| 20260905221553 | 81 | 33 | 0.0 | 3.0 | 0.00 | 0.42 | 0.42 | 56 | 1009.6 |
| 20260905221051 | 82 | 172 | 0.0 | 3.0 | 0.00 | 0.42 | 0.42 | 55 | 1009.4 |